CFG2LV EDDF-GCTS

Flight info

Callsign CFG2LV
Flight time N/A
Altitude 35000
Route SOBRA2L/18 SOBRA Y180 DIK UN857 TOLVU DCT RAPOR DCT ESTOC UT300 PON UN872 ERIGA DCT FUJTI DCT BAKUP DCT BATAX DCT BABEX DCT EMPAD DCT BEXAL UN866 KONBA
Aircraft A20N/M-SDE2E3FGHIRWXY/LB1

Departure

Time 2026-04-14 16:36
Airport Frankfurt Main Airport (EDDF)

Arrival

Time N/A
Airport Tenerife Sur Airport (GCTS)
Time Latitude Longitude Altitude Speed Heading
2026-04-14 15:54 50.04853 8.56946 359 ft 0 kts 295°
2026-04-14 15:55 50.04852 8.56946 356 ft 0 kts 295°
2026-04-14 16:21 50.04849 8.56955 363 ft 4 kts 294°
2026-04-14 16:21 50.04838 8.56994 365 ft 4 kts 295°
2026-04-14 16:22 50.04829 8.57032 363 ft 4 kts 264°
2026-04-14 16:22 50.04840 8.57066 362 ft 4 kts 212°
2026-04-14 16:22 50.04840 8.57067 362 ft 4 kts 205°
2026-04-14 16:22 50.04815 8.57050 356 ft 4 kts 205°
2026-04-14 16:23 50.04793 8.57034 360 ft 1 kts 205°
2026-04-14 16:23 50.04792 8.57034 359 ft 0 kts 205°
2026-04-14 16:25 50.04790 8.57032 359 ft 3 kts 205°
2026-04-14 16:26 50.04734 8.56990 362 ft 12 kts 206°
2026-04-14 16:26 50.04650 8.56929 363 ft 15 kts 204°
2026-04-14 16:26 50.04552 8.56885 358 ft 13 kts 193°
2026-04-14 16:26 50.04469 8.56858 361 ft 12 kts 191°
2026-04-14 16:27 50.04380 8.56836 359 ft 13 kts 191°
2026-04-14 16:27 50.04344 8.56826 360 ft 5 kts 190°
2026-04-14 16:27 50.04297 8.56813 361 ft 9 kts 190°
2026-04-14 16:27 50.04233 8.56793 365 ft 10 kts 192°
2026-04-14 16:28 50.04158 8.56758 361 ft 6 kts 212°
2026-04-14 16:28 50.04160 8.56748 364 ft 2 kts 287°
2026-04-14 16:28 50.04195 8.56713 360 ft 9 kts 313°
2026-04-14 16:28 50.04209 8.56643 359 ft 12 kts 268°
2026-04-14 16:29 50.04171 8.56452 359 ft 16 kts 250°
2026-04-14 16:29 50.04143 8.56335 358 ft 19 kts 251°
2026-04-14 16:29 50.04097 8.56132 353 ft 21 kts 249°
2026-04-14 16:29 50.04042 8.55916 352 ft 23 kts 249°
2026-04-14 16:30 50.03986 8.55673 352 ft 24 kts 249°
2026-04-14 16:30 50.03925 8.55423 350 ft 26 kts 250°
2026-04-14 16:30 50.03860 8.55158 357 ft 27 kts 249°
2026-04-14 16:30 50.03795 8.54877 349 ft 28 kts 250°
2026-04-14 16:31 50.03723 8.54582 350 ft 30 kts 249°
2026-04-14 16:31 50.03648 8.54269 347 ft 31 kts 250°
2026-04-14 16:31 50.03589 8.54005 338 ft 9 kts 250°
2026-04-14 16:31 50.03568 8.53916 339 ft 0 kts 250°
2026-04-14 16:32 50.03568 8.53915 339 ft 1 kts 250°
2026-04-14 16:32 50.03549 8.53838 335 ft 12 kts 249°
2026-04-14 16:32 50.03514 8.53699 336 ft 16 kts 249°
2026-04-14 16:32 50.03471 8.53518 334 ft 19 kts 250°
2026-04-14 16:33 50.03421 8.53311 335 ft 22 kts 248°
2026-04-14 16:33 50.03363 8.53080 335 ft 24 kts 249°
2026-04-14 16:33 50.03313 8.52876 333 ft 19 kts 251°
2026-04-14 16:33 50.03282 8.52742 331 ft 1 kts 247°
2026-04-14 16:34 50.03281 8.52741 331 ft 0 kts 247°
2026-04-14 16:34 50.03273 8.52708 331 ft 8 kts 246°
2026-04-14 16:34 50.03235 8.52636 335 ft 10 kts 218°
2026-04-14 16:34 50.03169 8.52594 333 ft 0 kts 185°
2026-04-14 16:35 50.03154 8.52594 333 ft 16 kts 180°
2026-04-14 16:35 50.02793 8.52604 332 ft 86 kts 179°
2026-04-14 16:35 50.01980 8.52626 334 ft 142 kts 179°
2026-04-14 16:36 50.00871 8.52621 540 ft 165 kts 179°
2026-04-14 16:36 49.99754 8.52649 1369 ft 159 kts 176°
2026-04-14 16:36 49.98647 8.52746 1991 ft 161 kts 176°
2026-04-14 16:36 49.97480 8.52847 2397 ft 176 kts 177°
2026-04-14 16:37 49.96184 8.52946 2771 ft 193 kts 177°
2026-04-14 16:37 49.94793 8.53040 3093 ft 211 kts 177°
2026-04-14 16:37 49.93248 8.53138 3394 ft 230 kts 177°
2026-04-14 16:37 49.91593 8.53241 3836 ft 238 kts 177°